Rhodes, Greece

5:15 PM EEST on June 24, 2017 (GMT +0300)
Diagoras

Weather History for LGRP - November, 2013

Change the Weather History Date:

Monday, November 18, 2013

  Actual Average Record
Temperature  
Mean Temperature 62 °F -  
Max Temperature 67 °F 64 °F 75 °F (2002)
Min Temperature 57 °F 53 °F 46 °F (2001)
Degree Days  
Heating Degree Days 3    
Growing Degree Days 12 (Base 50)    
Moisture  
Dew Point 57 °F    
Average Humidity 82    
Maximum Humidity 94    
Minimum Humidity 59    
Precipitation  
Precipitation 0.00 in 0.16 in - ()
Sea Level Pressure  
Sea Level Pressure 30.01 in    
Wind  
Wind Speed 5 mph ()    
Max Wind Speed 12 mph    
Max Gust Speed -    
Visibility 6.2 miles    
Events      
Averages and records for this station are not official NWS values.
T = Trace of Precipitation, MM = Missing Value Source: Averaged Metar Reports

Daily Weather History Graph

Daily Weather History Graph

Search for Another Location

Airport or City:

Trip Planner

Search our weather history database for the weather conditions in past years. The results will help you decide how hot, cold, wet, or windy it might be!

Date:

Astronomy

Nov. 18, 2013 Rise Set
Actual Time 6:47 AM EET 4:57 PM EET
Civil Twilight 6:20 AM EET 5:25 PM EET
Nautical Twilight 5:49 AM EET 5:56 PM EET
Astronomical Twilight 5:18 AM EET 6:26 PM EET
Moon 5:44 PM EET (11/18) 7:18 AM EET (11/18)
Length of Visible Light 11h 04m
Length of Day
10h 09m
Full, 99% of the Moon is Illuminated
Nov 18
Full
Nov 25
Last Quarter
Dec 3
New
Dec 9
First Quarter
Dec 17
Full

Hourly Weather History & Observations

Time (EET) Temp. Dew Point Humidity Pressure Visibility Wind Dir Wind Speed Gust Speed Precip Events Conditions
12:20 AM 59.0 °F 57.2 °F 94% 29.98 in 6.2 mi SW 3.5 mph - N/A   Partly Cloudy
12:50 AM 59.0 °F 57.2 °F 94% 29.95 in 6.2 mi SSW 3.5 mph - N/A   Partly Cloudy
1:20 AM 59.0 °F 57.2 °F 94% 29.95 in 6.2 mi Variable 2.3 mph - N/A   Partly Cloudy
1:50 AM 59.0 °F 55.4 °F 88% 29.98 in 6.2 mi SSW 4.6 mph - N/A   Partly Cloudy
2:00 AM 59 °F 56 °F 87% 29.98 in 6 mi SSW 4.6 mph - -   Scattered Clouds
2:20 AM 59.0 °F 55.4 °F 88% 29.98 in 6.2 mi SW 5.8 mph - N/A   Partly Cloudy
2:50 AM 57.2 °F 55.4 °F 94% 29.98 in 6.2 mi Variable 2.3 mph - N/A   Partly Cloudy
3:20 AM 57.2 °F 55.4 °F 94% 29.98 in 6.2 mi Variable 2.3 mph - N/A   Partly Cloudy
3:50 AM 57.2 °F 55.4 °F 94% 29.98 in 6.2 mi WNW 9.2 mph - N/A   Partly Cloudy
4:20 AM 57.2 °F 55.4 °F 94% 29.98 in 6.2 mi WNW 9.2 mph - N/A   Partly Cloudy
4:50 AM 62.6 °F 55.4 °F 77% 29.98 in 6.2 mi WNW 11.5 mph - N/A   Partly Cloudy
5:20 AM 62.6 °F 55.4 °F 77% 29.98 in 6.2 mi WNW 11.5 mph - N/A   Partly Cloudy
5:50 AM 62.6 °F 55.4 °F 77% 29.98 in 6.2 mi NW 10.4 mph - N/A   Partly Cloudy
6:20 AM 62.6 °F 55.4 °F 77% 29.98 in 6.2 mi WNW 10.4 mph - N/A   Partly Cloudy
6:50 AM 62.6 °F 55.4 °F 77% 29.98 in - WNW 9.2 mph - N/A   Clear
7:20 AM 62.6 °F 55.4 °F 77% 29.98 in - NW 9.2 mph - N/A   Clear
7:50 AM 62.6 °F 57.2 °F 82% 29.98 in - West 6.9 mph - N/A   Clear
8:00 AM 63 °F 57 °F 76% 30.00 in 6 mi West 6.9 mph - -  
8:20 AM 64.4 °F 57.2 °F 77% 30.01 in - WNW 8.1 mph - N/A   Clear
8:50 AM 64.4 °F 57.2 °F 77% 30.01 in - WNW 6.9 mph - N/A   Clear
9:20 AM 64.4 °F 57.2 °F 77% 30.01 in - WNW 8.1 mph - N/A   Clear
9:50 AM 64.4 °F 57.2 °F 77% 30.01 in - WNW 6.9 mph - N/A   Clear
10:20 AM 64.4 °F 57.2 °F 77% 30.01 in - West 5.8 mph - N/A   Clear
10:50 AM 66.2 °F 59.0 °F 78% 30.01 in - West 5.8 mph - N/A   Clear
11:20 AM 66.2 °F 59.0 °F 78% 30.01 in - West 5.8 mph - N/A   Clear
11:50 AM 66.2 °F 59.0 °F 78% 30.01 in - West 6.9 mph - N/A   Clear
12:20 PM 66.2 °F 59.0 °F 78% 30.01 in - West 4.6 mph - N/A   Clear
12:50 PM 66.2 °F 59.0 °F 78% 30.01 in - WNW 4.6 mph - N/A   Clear
1:20 PM 66.2 °F 59.0 °F 78% 30.01 in - West 4.6 mph - N/A   Clear
1:50 PM 68.0 °F 57.2 °F 68% 29.98 in 6.2 mi West 5.8 mph - N/A   Partly Cloudy
2:00 PM 68 °F 57 °F 59% 30.00 in 6 mi West 5.8 mph - -   Scattered Clouds
2:20 PM 68.0 °F 57.2 °F 68% 29.98 in 6.2 mi West 5.8 mph - N/A   Partly Cloudy
2:50 PM 68.0 °F 59.0 °F 73% 30.01 in 6.2 mi West 8.1 mph - N/A   Partly Cloudy
3:20 PM 68.0 °F 59.0 °F 73% 30.01 in 6.2 mi West 8.1 mph - N/A   Partly Cloudy
3:50 PM 66.2 °F 59.0 °F 78% 30.01 in - West 6.9 mph - N/A   Clear
4:20 PM 66.2 °F 59.0 °F 78% 30.01 in - West 6.9 mph - N/A   Clear
4:50 PM 64.4 °F 59.0 °F 83% 30.01 in - SSW 4.6 mph - N/A   Clear
5:20 PM 64.4 °F 59.0 °F 83% 30.01 in - SSW 4.6 mph - N/A   Clear
5:50 PM 62.6 °F 57.2 °F 82% 30.04 in - SSW 3.5 mph - N/A   Clear
6:20 PM 62.6 °F 57.2 °F 82% 30.04 in - SSW 3.5 mph - N/A   Clear
6:50 PM 59.0 °F 53.6 °F 82% 30.04 in - Calm Calm - N/A   Clear
7:20 PM 59.0 °F 53.6 °F 82% 30.04 in - Calm Calm - N/A   Clear
7:50 PM 60.8 °F 55.4 °F 82% 30.04 in - SSW 3.5 mph - N/A   Clear
8:00 PM 60 °F 55 °F 77% 30.06 in 6 mi SSW 3.5 mph - -  
8:20 PM 60.8 °F 55.4 °F 82% 30.04 in - SSW 3.5 mph - N/A   Clear
8:50 PM 60.8 °F 55.4 °F 82% 30.06 in - SSW 3.5 mph - N/A   Clear
9:20 PM 60.8 °F 55.4 °F 82% 30.06 in - SSW 3.5 mph - N/A   Clear
9:50 PM 59.0 °F 57.2 °F 94% 30.06 in - Calm Calm - N/A   Clear
10:20 PM 59.0 °F 57.2 °F 94% 30.06 in - Calm Calm - N/A   Clear
10:50 PM 59.0 °F 57.2 °F 94% 30.06 in - Variable 1.2 mph - N/A   Clear
11:20 PM 59.0 °F 57.2 °F 94% 30.06 in - SE 3.5 mph - N/A   Clear
11:50 PM 57.2 °F 55.4 °F 94% 30.06 in - ESE 2.3 mph - N/A   Clear